Location: Praha
(50.0830°N, 14.4670°E)
Time: 05:39:52
(UTC+02:00)

ISS - Pass Details

Date: 22 May 2021
Orbit: 417 x 422 km, 51.6° (Epoch: 13 June)

Event Time Altitude Azimuth Distance (km) Brightness Sun altitude
Rises 01:21:30 0° 286° (WNW) 2,371 0.2 -19.4°
Reaches altitude 10° 01:23:47 10° 274° (W) 1,504 -1.0 -19.3°
Enters shadow 01:24:07 12° 271° (W) 1,385 -1.2 -19.3°
